Regional Weather Roundup
Issued by NWS Pendleton, OR

Home | Current Version | Previous Version | Text Only | Print | Product List | Glossary On
Versions: 1 2 3 4 5 6 7 8 9 10 11 12 13 14 15 16 17 18 19 20 21 22 23 24 25 26 27 28 29 30 31 32 33 34 35 36 37 38 39 40 41 42 43 44 45 46 47 48 49 50
106
ASUS46 KPDT 242225
RWRPDT
PENDLETON REGIONAL WEATHER ROUNDUP
NATIONAL WEATHER SERVICE PENDLETON OREGON
300 PM PDT WED MAY 24 2017

NOTE: FAIR INDICATES FEW OR NO CLOUDS BELOW 12,000 FEET WITH NO
SIGNIFICANT WEATHER AND/OR OBSTRUCTIONS TO VISIBILITY.

# INDICATES UNOFFICIAL STATION AND DATA

WAZ520-242310-
EAST SLOPES OF WASHINGTON CASCADES

CITY            SKY/WX      TMP DP  RH  WIND    PRES   REMARKS
#BULLFROG       N/A         53  34  48  SW12G28 N/A
#CLE ELUM HS    N/A         52  34  50  NW9     29.84S
#CLE ELUM LAKE  N/A         51  34  52  NW1     29.91F
#EASTON DOT     N/A         51  33  50  N6      N/A
#ELK HTS DOT    N/A         54  54  100 W8      N/A
#GLENWOOD       N/A         62  43  50  S7      29.78F
#NELSON 3SW     N/A         51  34  52  CALM    30.04S
#NILE           N/A         57  35  43  W6      29.09R
#TEANAWAY 4NE   N/A         56  38  51  W6      N/A
#TROUT LAKE 1NE N/A         58  38  47  W15G26  29.84S
#TROUT LAKE 1E  N/A         61  39  44  S1      29.91S
$$

WAZ521-242310-
SIMCOE HIGHLANDS

CITY            SKY/WX      TMP DP  RH  WIND    PRES   REMARKS
#BICKLETON HS   N/A         58  42  55  SW17    29.80F
#CENTERVILLE 1SWN/A         56  39  53  W28     29.82F
#GOLDENDALE 1NE N/A         59  28  30  SW14    N/A
#GOLDENDALE 4W  N/A         60  15  17  W25     29.87F
#GOODNOE HILLS  N/A         64  40  41  NW25    N/A
#LYLE 6NE       N/A         56  43  62  SW20G33 29.83F
#PITT 4SE       N/A         52  41  66  W22G30  29.86F
$$

WAZ026-242310-
KITTITAS VALLEY

CITY            SKY/WX      TMP DP  RH  WIND    PRES   REMARKS
ELLENSBURG AP   SUNNY       61  36  39  NW28G45 29.83F
YTC-OPS AREA    SUNNY       54  29  38  N39G51  29.80R
#ELLENSBURG CWU N/A         57  34  42  W20     29.74F
#ELLENSBURG 3NE N/A         56  38  51  N15G29  27.92F
#ELLENSBURG 1E  N/A         58  N/A N/A NW3     N/A
#KITTITAS 4N    N/A         58  36  44  W25     29.82F
#KITTITAS 3S    N/A         57  40  53  NW18G31 29.78S
#MANASTASH RDG  N/A         56  55  96  NW25G33 N/A
#ROCKY CYN DOT  N/A         59  37  44  W36G48  N/A
#RYEGRASS DOT   N/A         55  34  45  W41G50  N/A
#THORP 6N       N/A         52  36  54  NW35G52 29.79F
$$

WAZ027-242310-
YAKIMA VALLEY

CITY            SKY/WX      TMP DP  RH  WIND    PRES   REMARKS
SUNNYSIDE AP    SUNNY       67  34  29  W10     29.79F
YAKIMA AIRPORT  MOSUNNY     72  32  23  N14G25  29.81F
YAKIMA-VAGABOND SUNNY       66  29  25  N23G36  29.79F
#DONALD 2NE     N/A         72  12  10  N7      28.64F
#GRANDVIEW      N/A         68  29  23  N5      29.79F
#MOXEE 2E       N/A         67  N/A N/A NW12    29.79F
#NACHES 2SW     N/A         63  36  36  N7      29.87S
#OUTLOOK DOT    N/A         67  28  23  W5      29.78F
#PARKER DOT     N/A         69  32  25  S8      29.80F
#TERRACE HTS    N/A         70  35  28  NW9     29.74F
#TOPPENISH      N/A         66  35  32  CALM    29.70F
#I82 S UMTANUM RN/A         63  35  35  W17G33  N/A
#UNION GAP DOT  N/A         68  31  25  N10     29.84S
#WEST VALLEY    N/A         66  34  30  NW12    29.75F
#W YAKIMA       N/A         66  35  32  NW5     29.77S
#WHITE SWAN 5E  N/A         68  37  32  CALM    29.78F
#WILEY CITY 3W  N/A         65  27  24  CALM    29.78F
#ZILLAH DOT     N/A         68  29  23  W8      N/A
$$

WAZ028-242310-
LOWER COLUMBIA BASIN...WASHINGTON

CITY            SKY/WX      TMP DP  RH  WIND    PRES   REMARKS
HANFORD         MOSUNNY     71  28  20  NW21G32 29.77F
PASCO           MOSUNNY     72  30  21  W9      29.79F
PROSSER AWOS    N/A         68  36  31  W8      29.83F
RICHLAND AWOS   PTCLDY      75  32  21  SW16G25 29.78F
#BENTON CITY    N/A         68  35  29  CALM    29.68F
#CONNELL 5N     N/A         68  34  28  SW2     29.74F
#CONNELL 5NW    N/A         66  36  33  SW7     29.70F
#ELTOPIA 6NW    N/A         68  39  35  W3      28.76F
#KAHLOTUS       N/A         63  32  31  N10G26  29.74F
#KENNEWICK 3S   N/A         69  37  31  W2      29.78F
#PATERSON       N/A         67  39  36  W10     29.78F
#PROSSER DOT    N/A         69  28  21  SW10    29.81F
#SAGEMOOR 2W    N/A         68  34  28  W8      29.62F
#TOUCHET 2S     N/A         67  40  37  N2      29.76F
#WEST PASCO     N/A         73  40  30  S5      29.76F
$$

WAZ029-242310-
FOOTHILLS OF THE BLUES...WASHINGTON

CITY            SKY/WX      TMP DP  RH  WIND    PRES   REMARKS
WALLA WALLA AP  SUNNY       68  30  24  SW14    29.80F
#CLYDE 6NW      N/A         64  30  28  SW15G25 29.73F
#DAYTON SCHOOL  N/A         62  29  28  W5      29.82F
#LOWDEN 2SE     N/A         68  39  35  W6      29.76F
#PLEASANT VIEW 1N/A         64  33  31  S8      29.77F
#PRESCOTT       N/A         65  37  35  W6      29.75F
#WHITMAN COLLEGEN/A         65  33  30  SW10    29.80F
#WAITSBURG 6SSE N/A         62  30  30  S7      29.78F
#WALLA WALLA 5E N/A         66  34  30  W8      N/A
#WHITMAN MISSIONN/A         66  38  36  NW2     29.79F
$$

WAZ030-242310-
BLUE MOUNTAINS...WASHINGTON

CITY            SKY/WX      TMP DP  RH  WIND    PRES   REMARKS
#DIXIE 5SE      N/A         54  31  41  SW10    29.75F
$$

ORZ009-041-WAZ024-242310-
COLUMBIA RIVER GORGE

CITY            SKY/WX      TMP DP  RH  WIND    PRES   REMARKS
HOOD RIVER AP   PTCLDY      61  41  48  W17G26  29.93F
THE DALLES AP   SUNNY       67  38  34  W24G44  29.89F
#ARLINGTON AIRPON/A         65  40  40  W18     29.80F
#CELILO DOT     N/A         65  41  41  SW12    N/A
#LYLE           N/A         61  43  51  W22G36  29.91F
#MARYHILL       N/A         62  38  41  N31G39  N/A
#MURDOCK        N/A         62  42  48  W21G37  29.84F
#RUFUS DOT      N/A         66  39  37  W16     N/A
#SMITHVILLE     N/A         64  41  43  N20G30  29.82F

$$

ORZ510-242310-
NORTH CENTRAL OREGON

CITY            SKY/WX      TMP DP  RH  WIND    PRES   REMARKS
#ANTELOPE       N/A         60  33  36  NW7     29.65S
#CHENOWITH 1W   N/A         51  35  54  NW14    N/A
#COW CYN RST AREN/A         61  28  28  NW5     N/A
#DUFUR          N/A         61  38  42  NW8     29.83R
#DUFUR 9E       N/A         53  36  52  NW24G36 29.91F
#GRASS VALLEY 1SN/A         59  34  39  NW16G24 29.91F
#KENT DOT       N/A         58  31  36  NW18    N/A
#MAUPIN SCHOOL  N/A         65  36  34  N8      29.90F
#MORO SCHOOL    N/A         58  42  55  W15     29.96F
#SHANIKO 5WSW   N/A         58  26  29  N23     N/A
#SHANIKO 4NW    N/A         54  28  36  N22G32  29.89S
#TYGH VALLEY 2NEN/A         64  36  35  N7      29.83S
#WAPANITIA AIRPON/A         62  37  39  W12     29.85S
#WASCO DOT      N/A         62  39  43  SW16    N/A
#WASCO 5NE      N/A         61  40  46  W21G31  29.82F
$$

ORZ511-242310-
CENTRAL OREGON

CITY            SKY/WX      TMP DP  RH  WIND    PRES   REMARKS
BEND AIRPORT    SUNNY       66  25  21  N15     29.81F
MADRAS AIRPORT  SUNNY       61  32  33  NW23G28 29.91F
PRINEVILLE AP   SUNNY       63  27  25  MISG    29.87F
REDMOND AIRPORT SUNNY       65  22  19  N22G28  29.86F
#ASHWOOD SCHOOL N/A         62  31  31  W7      29.85S
#BEND 1SW       N/A         63  25  23  W3      N/A
#BEND-AWBREY    N/A         66  29  25  NW2     29.74S
#BEND-KIM LN    N/A         64  28  25  NW10    29.69F
#CULVER         N/A         63  29  28  N9      29.71F
#CULVER 8W      N/A         66  27  23  N3      29.88F
#MADRAS 4S      N/A         60  14  16  NW23    N/A
#POWELL BUTTE   N/A         61  29  30  N12     29.84F
#PRINEVILLE     N/A         62  28  27  NW9     29.84S
#PRINEVILLE 3N  N/A         60  33  36  NW23    29.76F

$$


ORZ509-242310-
EAST SLOPES OF OREGON CASCADES

CITY            SKY/WX      TMP DP  RH  WIND    PRES   REMARKS
SISTERS AWOS    N/A         63  28  26  W20G33  29.88S
#CAMP SHERMAN   N/A         66  34  30  N7      29.88S
#LA PINE 4SW    N/A         68  -10  4  W9      29.88F
#LA PINE 4NW    N/A         63  29  28  W6      29.74F
#LAVA BUTTE DOT N/A         66  24  20  N2      N/A
#SISTERS 3N     N/A         62  29  28  W3      29.88F
#SUNRIVER       N/A         66  24  20  N3      29.70F
#TUMALO 3W      N/A         61  26  26  N16     29.64F
#WANOGA BUTTE D N/A         53  13  20  NE7     N/A

$$

ORZ044-242310-
LOWER COLUMBIA BASIN...OREGON

CITY            SKY/WX      TMP DP  RH  WIND    PRES   REMARKS
HERMISTON       SUNNY       69  31  24  SW12    29.81F
#BOARDMAN SCHOOLN/A         68  37  32  SW7     29.81F
#BOARDMAN 8SW   N/A         68  41  37  W12     29.79F
#ECHO 8SW       N/A         68  35  29  W6      29.83F
#I-84 EX 198 DOTN/A         65  39  38  E2      N/A
#IONE SCHOOL    N/A         65  34  31  W14     29.80F
#UMATILLA       N/A         70  34  26  N2      29.72F
$$

ORZ507-242310-
NORTHERN FOOTHILLS OF THE BLUES

CITY            SKY/WX      TMP DP  RH  WIND    PRES   REMARKS
PENDLETON AIRPT PTCLDY      63  32  31  MISG    29.82F
#ADAMS 3WNW     N/A         62  37  39  SW7     29.77F
#ATHENA         N/A         61  34  36  W5      29.79F
#CAYUSE         N/A         61  35  38  SW6     29.76F
#HELIX 3N       N/A         60  32  35  SW10    29.80F
#HOLDMAN 5SE    N/A         64  33  31  SW6     29.82F
#HOLDMAN 6E     N/A         64  33  31  SW9     29.58F
#M-F FERNDALE   N/A         76  39  26  CALM    29.78F
#M-F GROVE ELEM N/A         66  31  27  SW5     29.79F
#M-FREEWATER 5SEN/A         63  38  39  W5      29.81F
#PENDLETON DNTN N/A         69  35  28  NW1     29.80F
#PDT AQUATIC CTRN/A         66  38  36  W3      29.85F
#PDT SUNRIDGE   N/A         65  36  34  W5      29.83F
#PENDLETON 7NW  N/A         65  38  37  N1      27.01S
#PILOT ROCK 1S  N/A         64  34  33  W5      29.85F
#PILOT ROCK     N/A         65  33  30  CALM    29.84F
#TUTUILLA       N/A         66  39  37  W3      29.80F
#UMAPINE 2E     N/A         68  39  35  W3      29.78F
#WESTON SCHOOL  N/A         60  30  32  NW2     29.77F

$$

ORZ508-242310-
SOUTHERN FOOTHILLS OF THE BLUES

CITY            SKY/WX      TMP DP  RH  WIND    PRES   REMARKS
LEXINGTON       SUNNY       66  30  26  NW14    29.86F
#AJAX           N/A         59  28  30  SW14G24 30.03S
#CONDON 5W      N/A         54  30  40  NW9     29.86F
#FOSSIL SCHOOL  N/A         58  31  36  W10G25  29.82F
#HEPPNER EOC    N/A         61  34  36  NW5     29.72F
#LEXINGTON 2SE  N/A         64  35  34  W13     29.81F
#MIKKALO        N/A         63  33  32  NW15G25 29.96F
#OLEX 4N        N/A         63  36  36  W16G26  29.84F
#RUGGS 5NE      N/A         60  33  36  W9      30.01F
#RUGGS 2SW      N/A         58  31  36  W12     29.80S

$$

ORZ502-503-242310-
BLUE MOUNTAINS

CITY            SKY/WX      TMP DP  RH  WIND    PRES   REMARKS
MEACHAM         MOSUNNY     54  19  25  MISG    29.83F
#BATTLE MTN DOT N/A         54  31  41  NW3     N/A
#GRANITE        N/A         64  23  21  W2      29.47F
#GREENHORN 9SW  N/A         62  32  32  NW6     29.83F
#HARDMAN 10S    N/A         54  31  41  NW1     29.84F
#LADD CYN SMT   N/A         54  30  40  NW13    N/A
#LADD CREEK ODOTN/A         56  32  40  NE8     N/A
#LONG CREEK HS  N/A         57  33  40  N16G24  N/A
#N POWDER DOT   N/A         57  34  42  N23     N/A
#PIKES PEAK     N/A         50  30  46  N12     27.99S
#SUMMERVILLE 5NWN/A         58  33  39  NW5     29.84F
#TOLLGATE       N/A         45  30  55  S6      29.72F
#TROY SCHOOL    N/A         62  33  34  NW1     29.55F
#UKIAH          N/A         56  35  45  N9      29.66R
#WESTON 4E      N/A         55  35  47  SW8     29.72F
$$

ORZ505-242310-
JOHN DAY BASIN

CITY            SKY/WX      TMP DP  RH  WIND    PRES   REMARKS
JOHN DAY        SUNNY       64  27  24  N22G28  29.81F
#ANTELOPE 9ESE  N/A         67  29  24  NW7G25  N/A
#DAYVILLE SCHOOLN/A         66  25  21  N10     29.80S
#MITCHELL       N/A         63  33  32  NW2     30.01S
#MITCHELL 8NW   N/A         63  28  26  W7      29.76S
#MONUMENT HS    N/A         68  25  20  NE14    29.79R
#MT. VERNON 5SE N/A         61  22  22  W7      29.77F
#SPRAY SCHOOL   N/A         68  N/A N/A CALM    N/A
$$

ORZ506-242310-
OCHOCO AND JOHN DAY HIGHLANDS

CITY            SKY/WX      TMP DP  RH  WIND    PRES   REMARKS
#HORSE RIDGE DO N/A         64  17  16  NW16    N/A
#IZEE 6NW       N/A         68  20  16  W9      N/A
#PAULINA ODOT   N/A         63  15  15  W18     N/A
#PINE MTN OBS   N/A         50  19  29  N13G28  N/A
#SENECA         N/A         59  N/A N/A N7      N/A
#SENECA 9NW     N/A         60  22  23  NE2     29.62F
$$

ORZ049-242310-
GRANDE RONDE VALLEY

CITY            SKY/WX      TMP DP  RH  WIND    PRES   REMARKS
LA GRANDE       SUNNY       61  30  31  NW13    29.80F
#COVE           N/A         59  34  39  NW5     29.87F
#COVE SCHOOL    N/A         60  34  37  CALM    29.85F
#COVE 6NW       N/A         58  34  40  N5      29.72F
#ELGIN 3N       N/A         58  28  32  CALM    29.80F
#ELGIN 1E       N/A         59  31  34  W6      N/A
#IMBLER SCHOOL  N/A         56  31  38  CALM    29.79F
#ISLAND CITY 4N N/A         63  46  54  W5      30.00F
#LA GRANDE-LEFFEN/A         60  33  36  W13     29.81F
#UNION 1S       N/A         59  31  34  W13     29.73R
$$

ORZ050-242310-
WALLOWA COUNTY

CITY            SKY/WX      TMP DP  RH  WIND    PRES   REMARKS
JOSEPH AIRPORT  SUNNY       55  27  34  N20G30  29.79F
#ENTERPRISE HS  N/A         55  31  40  NW10    29.53S
#IMNAHA SCHOOL  N/A         66  30  26  E3      29.77F
#IMNAHA 10S     N/A         62  33  34  SW7G35  29.78F
#JOSEPH         N/A         54  26  34  N13     29.79F
#JOSEPH 3N      N/A         56  23  28  N13     29.84F
#JOSEPH 3W      N/A         52  32  46  N10     29.66F
#LOSTINE        N/A         57  32  38  N5      29.49S
#LOSTINE 3SE    N/A         55  29  37  N12     29.82F
#MT HOWARD 8000 N/A         34  25  69  N5      29.84S
#PROMISE 1S     N/A         52  32  46  SW10    29.85F
#WALLOWA LAKE   N/A         59  32  36  N5      29.81F
#WALLOWA SCHOOL N/A         58  30  34  W2      29.79F



$$



USA.gov is the U.S. government's official web portal to all federal, state and local government web resources and services.